Theta_e
349 348 347 345 341 337 337 336 337 336 333 327 316 321 333 336 336 338 338 335 332 329 327 325 325 327 331 333 335 339 340 341 341 342 343 343 343 343 343 344 344 343 343 342 342 342 342 341 341 341 341 340 339 338 336 336 334 331 330 328 330 332 332 332 333 334 335 334 332 331 330 330 330 331 331 330 329 329 330 331 331 330 331 331 332
349 347 347 345 341 338 337 336 337 336 333 326 316 321 333 336 336 337 339 337 336 334 332 330 328 328 330 333 336 339 341 342 342 343 343 343 343 343 343 343 343 343 342 341 341 341 341 341 340 341 340 339 338 337 336 335 333 331 329 324 326 329 331 332 332 332 333 332 331 330 329 329 330 331 331 331 330 330 331 331 331 330 331 331 331
348 347 346 345 341 338 337 336 337 336 333 327 317 319 332 337 337 339 340 339 340 339 338 336 335 333 334 338 340 341 342 343 343 343 343 343 343 343 343 343 343 342 341 341 341 341 340 340 340 339 339 339 338 337 337 335 334 333 331 327 326 330 331 332 331 331 331 332 331 330 328 329 330 331 331 331 331 330 331 331 331 331 331 331 331
347 347 345 345 341 337 337 336 337 336 334 327 318 318 331 338 338 340 340 340 342 341 341 341 341 340 340 342 342 343 343 343 343 343 343 343 343 343 343 342 342 342 341 341 340 340 339 339 338 338 338 338 337 337 337 336 335 334 334 333 331 331 331 331 332 331 331 331 331 330 329 329 331 332 332 332 332 331 331 331 330 330 330 330 330
348 346 345 345 341 337 337 336 337 336 334 328 319 318 331 338 338 339 340 341 342 341 342 342 342 342 342 343 343 343 343 343 343 343 343 343 343 343 343 343 342 342 341 341 340 340 339 337 337 337 337 337 337 336 336 336 336 335 335 335 333 332 329 330 332 331 331 331 331 332 332 332 333 333 332 332 332 331 331 330 330 331 331 330 330
347 345 346 345 341 337 337 336 337 337 334 329 321 319 331 338 338 339 340 341 342 342 342 342 342 342 343 343 343 343 343 343 343 343 343 343 343 343 343 342 342 341 341 341 340 339 338 336 336 337 336 336 337 336 336 336 335 335 336 335 335 332 329 327 330 331 331 333 333 332 332 332 333 333 332 331 331 331 331 330 330 331 332 331 331
346 345 346 344 341 339 338 337 337 337 334 329 322 320 331 337 337 339 339 341 342 342 342 342 342 342 343 343 343 343 343 343 343 343 343 343 343 343 343 342 341 341 340 340 339 339 338 336 336 336 336 336 335 335 335 335 335 335 335 335 335 334 331 327 329 331 331 333 333 331 330 330 331 332 332 331 331 332 332 331 330 329 330 330 330
346 346 346 343 341 340 339 337 337 336 333 329 323 323 330 335 337 338 339 341 341 342 342 342 343 342 343 342 343 343 343 343 343 343 343 343 342 343 342 341 341 341 340 338 338 339 338 337 337 336 335 333 332 332 332 333 333 333 332 332 333 333 333 329 327 330 331 331 332 331 331 331 332 333 333 332 332 331 331 330 330 329 328 328 328
346 346 345 343 342 341 338 336 336 335 333 328 325 326 331 334 337 338 339 341 341 342 342 342 343 342 343 343 343 343 343 343 343 343 342 342 342 342 342 341 341 340 339 333 330 336 338 337 336 334 332 330 329 330 331 331 329 330 330 330 331 331 332 331 327 328 330 330 330 331 332 332 332 332 332 332 331 330 328 328 329 329 329 329 329
346 345 344 343 342 341 338 336 336 334 332 328 326 327 332 335 336 338 340 341 341 342 342 342 343 342 343 343 343 343 342 342 342 342 342 342 341 341 341 339 339 338 337 331 324 331 336 334 334 332 331 330 330 331 330 328 328 330 331 331 331 331 331 332 327 325 328 330 330 330 330 329 328 329 330 330 330 330 329 329 330 331 331 330 331
345 344 344 343 343 341 338 337 336 335 333 330 327 325 331 336 337 337 339 341 341 342 342 342 343 342 343 343 343 342 342 342 341 340 340 340 339 339 338 336 336 333 332 331 325 325 329 329 330 332 333 331 330 329 327 328 330 332 331 331 331 332 332 331 326 324 328 329 329 329 327 327 328 329 329 330 331 331 330 331 332 332 331 331 331
345 344 343 343 343 341 339 338 337 336 334 330 328 327 332 336 336 336 338 340 341 341 341 342 342 342 343 342 342 342 341 340 339 338 336 336 335 337 336 333 331 327 324 325 325 323 322 321 321 324 328 327 326 325 327 330 331 332 331 331 331 332 331 329 327 326 329 329 330 330 327 327 329 330 330 331 331 330 330 330 330 330 330 330 331
344 343 343 344 343 342 339 338 337 337 335 332 329 331 334 336 336 336 337 339 340 341 341 341 342 342 343 342 341 341 340 339 338 336 335 333 331 334 334 329 325 325 323 322 323 324 321 318 316 316 319 320 321 324 329 331 332 332 332 331 331 331 330 329 328 328 330 330 330 330 329 328 328 329 330 331 331 329 329 329 329 329 329 329 329
343 342 343 344 343 342 339 338 338 337 336 333 330 330 332 333 335 336 336 337 339 340 340 341 341 342 341 341 341 341 340 338 338 336 335 333 331 331 330 326 323 325 324 320 322 323 321 318 316 315 317 318 322 328 331 331 332 333 332 331 330 330 330 330 329 328 329 330 330 331 331 330 329 329 330 331 330 330 329 328 328 328 327 327 327
342 342 343 343 342 341 339 338 337 337 337 335 331 330 330 331 334 334 334 335 338 339 340 341 340 341 341 341 341 340 339 338 338 336 335 334 332 330 328 325 324 326 325 322 320 320 319 318 317 317 319 322 326 330 331 331 332 333 333 331 330 330 330 330 329 327 327 327 329 331 330 329 330 329 329 329 329 329 329 328 329 329 328 327 327
342 342 343 342 341 340 339 338 338 338 337 335 332 332 332 332 333 332 333 334 337 340 340 340 340 341 341 341 340 339 339 338 337 336 335 334 332 330 327 325 324 328 328 325 321 317 318 318 319 320 322 325 329 331 330 331 333 333 334 332 331 331 331 331 330 328 326 326 328 328 327 327 329 329 329 330 330 330 329 329 329 329 329 326 326
343 342 342 341 341 340 340 339 339 339 337 335 333 333 334 333 332 332 333 333 336 339 339 340 340 341 340 340 340 339 338 336 336 336 335 334 332 330 327 324 325 328 328 327 322 316 317 318 320 322 324 328 330 330 331 332 333 333 334 334 332 332 332 332 330 329 327 326 326 326 326 328 330 330 331 330 330 329 329 329 327 327 327 325 325
342 342 341 341 341 340 340 339 339 338 336 334 334 334 334 333 333 333 334 333 335 337 338 340 339 339 338 337 337 337 336 335 336 335 334 334 333 330 328 326 326 328 328 328 323 317 316 318 321 323 325 328 330 330 331 332 333 333 334 334 333 333 333 332 331 329 328 327 326 326 327 328 330 330 330 330 330 329 328 328 327 327 327 326 326
341 341 341 341 340 340 339 338 337 336 334 334 334 334 334 334 334 335 335 334 334 335 337 338 338 337 336 336 336 336 336 335 336 335 335 335 333 330 328 328 328 329 329 328 323 317 315 318 321 323 325 328 329 330 332 333 333 333 334 334 334 333 333 333 331 330 329 328 326 326 326 327 329 330 330 330 329 328 328 327 328 327 326 326 326
341 341 341 341 339 339 337 335 334 333 331 332 333 333 333 333 334 335 336 335 334 334 336 336 337 336 336 337 336 336 335 334 334 334 335 335 333 331 328 328 329 329 330 329 326 319 314 317 320 322 325 328 329 330 332 333 333 333 334 334 334 334 333 333 332 330 329 328 327 325 325 326 327 329 329 329 328 328 328 328 327 327 326 326 326
339 340 340 339 337 337 335 332 332 332 331 332 332 333 333 333 334 335 335 334 334 334 335 335 336 336 336 336 335 334 331 330 329 329 333 333 333 333 330 329 328 328 329 329 329 324 315 314 318 321 324 328 329 330 332 332 332 333 333 333 334 333 333 332 331 331 330 329 327 325 326 325 326 328 329 329 329 329 328 328 327 326 325 325 324
338 339 338 338 336 335 334 332 333 333 332 333 333 333 333 333 333 333 333 333 333 333 334 335 336 335 335 334 333 331 329 328 327 325 327 329 332 335 332 330 328 327 329 329 330 328 321 314 314 318 322 326 328 330 332 332 332 332 333 333 333 333 333 333 332 332 331 329 327 326 325 325 327 329 329 328 329 329 328 327 327 326 325 324 323
338 338 337 336 335 334 333 333 334 334 333 333 332 333 333 333 332 332 334 336 335 333 333 335 334 334 333 333 332 331 331 332 334 331 327 326 329 334 334 333 331 328 327 328 329 329 327 321 315 315 320 325 327 330 331 331 330 330 331 332 333 333 333 332 332 332 331 329 327 326 324 324 328 330 330 328 328 328 327 327 326 325 326 324 323
337 337 336 335 335 334 334 334 335 335 333 332 333 333 332 332 332 333 336 340 339 333 333 335 334 333 333 333 334 335 336 337 338 337 335 331 328 328 330 331 331 329 328 327 327 328 329 328 322 316 317 322 326 330 331 330 329 329 332 332 332 332 332 332 332 332 331 330 327 325 324 324 327 329 329 329 328 328 327 327 326 325 325 324 323
336 336 335 335 334 334 335 335 336 335 333 333 334 334 333 332 333 336 337 339 340 336 335 336 334 333 333 333 334 336 338 338 338 337 338 337 333 329 327 327 327 328 328 328 327 327 328 329 328 321 317 320 325 330 331 329 328 330 333 333 333 332 332 332 332 332 331 330 327 325 324 324 326 326 328 330 328 328 327 327 326 326 325 323 324
335 335 335 335 334 334 335 335 336 336 334 333 334 335 334 333 333 335 337 337 338 337 336 335 334 333 333 332 333 335 336 337 337 337 337 337 337 336 334 332 329 327 326 326 327 328 327 328 329 327 324 323 326 330 330 328 328 330 333 332 333 333 333 332 332 332 331 331 328 326 324 323 324 324 328 330 329 328 327 327 326 325 324 323 324
335 335 334 335 335 335 336 336 337 336 335 334 334 335 334 334 334 334 335 335 336 336 335 335 334 333 331 332 333 335 336 336 336 336 337 337 337 337 337 336 334 331 327 325 324 326 328 327 327 329 328 327 328 330 329 329 329 331 333 333 334 334 334 334 333 332 331 331 329 328 325 322 323 324 328 330 329 328 327 326 326 325 324 323 324
335 335 334 335 336 337 337 338 338 337 335 334 334 334 334 334 334 334 333 333 333 333 333 332 332 332 331 332 334 335 336 336 336 336 336 337 337 337 337 337 337 336 334 331 326 324 326 328 328 327 329 330 329 329 329 329 331 332 333 334 335 334 334 333 333 333 332 332 330 329 325 322 323 325 328 330 329 328 327 326 326 325 324 324 325
335 335 335 336 338 338 338 338 338 338 336 333 332 332 333 334 333 333 333 333 333 332 332 332 332 333 334 335 335 336 337 336 336 336 336 337 337 337 337 338 337 337 336 336 332 328 326 327 328 327 328 330 331 331 330 330 332 333 334 335 334 334 333 332 332 332 332 332 331 329 326 323 323 325 327 329 329 329 328 326 326 326 325 324 325
336 336 336 337 338 338 339 339 339 339 335 331 332 333 333 333 333 334 335 335 335 335 336 335 335 335 336 336 336 337 337 337 336 336 336 336 337 338 337 337 337 337 337 337 336 334 331 328 327 326 327 329 331 332 331 332 332 333 334 334 334 334 333 333 332 332 331 331 331 330 327 324 323 325 326 328 330 329 328 327 326 326 325 325 326
337 337 336 336 338 339 339 340 340 339 336 333 333 334 335 335 336 336 337 337 337 337 338 338 338 337 337 337 337 337 337 337 337 336 336 336 337 337 337 337 337 337 337 336 336 336 335 333 331 330 329 329 329 330 331 331 332 332 333 333 333 333 332 332 332 332 331 331 331 330 328 325 323 325 326 327 329 330 328 327 326 326 325 325 326
338 338 338 338 338 339 340 340 340 340 339 337 336 336 336 336 336 337 337 338 338 338 339 338 338 338 338 338 337 337 337 337 337 336 336 336 336 336 336 336 336 336 336 336 336 336 336 336 335 334 333 332 331 330 331 331 331 331 331 332 332 331 331 331 331 332 332 331 331 330 328 325 323 325 326 326 328 329 329 327 327 327 326 327 326
339 339 338 339 339 340 340 340 340 339 340 339 339 338 338 338 337 337 338 339 339 338 338 338 338 338 337 337 337 337 337 337 337 336 336 335 335 335 335 335 335 335 335 335 335 336 336 336 336 335 335 334 333 333 333 332 332 332 331 332 332 331 331 330 331 331 332 331 331 330 329 326 324 324 326 327 328 329 329 327 326 327 327 327 327
340 339 339 340 341 341 341 341 340 340 339 339 339 339 339 338 338 338 339 340 339 338 337 337 337 337 337 336 336 336 336 336 336 336 336 335 335 335 335 335 335 335 335 335 335 335 335 335 335 335 335 334 334 334 334 333 333 333 333 333 333 333 331 331 331 331 331 332 331 331 330 328 325 325 326 327 327 327 327 327 325 327 328 328 327
340 340 341 341 341 341 340 340 340 340 339 339 339 339 340 339 339 339 339 339 338 337 337 337 337 337 337 337 336 336 336 336 336 336 336 335 335 335 335 335 335 335 335 335 334 334 334 334 334 334 334 334 334 333 333 332 332 332 333 333 333 333 332 331 331 332 332 331 331 331 330 329 327 325 326 326 327 327 326 326 324 325 327 328 328
340 341 340 339 339 339 338 338 339 339 339 339 339 339 340 339 340 339 339 338 338 337 337 337 337 337 337 337 336 336 336 336 336 336 336 335 335 335 335 336 336 336 336 335 335 334 334 333 333 333 333 333 333 333 332 332 332 332 333 333 333 333 332 332 331 332 332 332 332 331 330 330 328 326 326 326 326 327 326 325 324 325 327 328 327
341 340 339 339 339 339 339 339 339 339 339 339 339 339 339 339 339 339 339 338 337 337 336 336 337 337 337 336 335 335 335 335 336 336 335 335 335 335 335 335 335 336 336 335 335 335 335 334 334 333 333 333 333 333 333 332 332 333 333 333 333 333 333 332 332 332 332 332 331 331 331 330 329 328 328 326 325 326 327 325 322 325 329 328 328
340 339 339 340 340 340 340 339 339 339 339 339 339 338 339 339 338 338 338 337 336 336 336 336 336 335 335 335 335 335 335 335 335 334 334 334 335 335 334 335 335 335 336 336 335 336 336 335 335 334 333 333 332 332 332 332 332 332 332 333 333 333 333 333 332 332 332 332 332 332 331 330 330 329 328 327 326 325 327 326 322 324 328 328 329
340 339 340 340 340 339 338 338 338 338 338 338 338 338 338 338 338 338 338 337 337 336 336 336 335 335 334 334 334 334 334 334 334 333 333 334 335 335 335 335 335 335 336 336 336 336 335 335 335 334 334 333 333 332 332 331 331 331 331 332 332 333 333 333 333 332 332 332 332 332 331 330 330 329 329 328 327 326 326 327 324 323 326 328 329
339 339 339 339 338 337 337 337 337 337 338 338 337 337 338 338 338 338 338 337 336 335 335 334 334 334 334 334 334 334 333 333 334 334 334 335 335 335 335 335 334 334 336 336 335 335 335 335 334 334 334 334 334 334 333 332 332 332 332 331 332 332 332 332 332 332 332 331 332 332 332 331 330 330 330 328 327 326 326 326 324 324 326 328 329
337 337 337 336 336 336 336 336 336 337 337 337 337 337 337 337 337 338 337 336 335 334 334 334 333 333 333 333 333 334 334 333 334 334 334 334 334 334 334 334 334 334 334 334 334 334 334 334 334 333 333 334 334 334 334 334 333 332 332 332 331 331 331 331 332 332 332 332 332 331 332 331 331 330 330 329 327 326 325 323 324 323 325 329 329
332 334 334 333 334 334 334 334 335 336 336 336 336 336 336 336 337 337 336 335 334 334 334 333 333 333 333 333 333 334 334 334 334 334 334 334 333 333 334 334 334 333 333 333 334 334 334 333 333 332 332 333 333 333 333 333 332 332 332 331 331 331 330 330 331 331 331 331 331 331 331 331 331 331 330 329 327 326 324 322 322 320 321 327 329
329 330 331 331 333 332 332 332 332 333 333 334 335 335 335 336 336 336 334 333 332 333 333 333 333 333 333 332 333 333 333 333 334 333 333 333 333 334 334 334 334 333 332 332 333 333 333 332 331 331 331 331 332 332 332 332 332 333 332 331 332 333 332 330 329 330 330 330 331 331 331 331 331 331 330 329 328 327 326 324 322 319 318 323 327
327 328 329 330 330 329 330 330 330 331 331 332 333 333 334 334 335 334 332 332 331 331 331 331 331 332 332 332 332 332 332 332 332 333 333 333 333 333 333 333 333 332 331 332 331 331 332 331 331 331 331 331 331 331 332 332 333 333 333 332 332 332 334 331 328 329 330 329 330 330 330 330 330 330 329 329 329 328 328 326 324 321 319 320 324
325 326 327 327 328 328 329 329 329 329 329 329 330 331 332 332 332 331 331 331 330 330 329 329 329 330 330 330 330 330 331 331 331 331 332 332 332 332 331 331 332 332 332 332 332 332 332 331 331 331 331 331 331 331 332 332 332 332 332 332 332 332 333 331 328 329 329 329 330 330 330 330 330 330 329 329 329 329 328 327 326 324 322 320 321
323 324 325 325 326 326 326 326 326 326 326 327 327 329 330 330 330 329 329 329 327 326 326 326 326 327 327 327 328 328 329 329 329 330 330 330 330 330 330 330 331 332 332 332 332 332 331 331 332 332 331 331 331 331 331 331 331 331 331 332 332 332 332 330 330 331 330 329 329 329 330 330 330 330 329 329 329 329 328 328 327 327 326 323 320
321 322 322 322 323 323 323 323 323 323 323 324 325 326 327 328 328 327 327 326 324 323 323 323 324 324 325 325 325 326 326 327 327 327 328 329 329 329 329 329 330 330 331 331 331 331 331 331 331 331 331 331 331 331 331 331 331 331 330 330 331 331 331 330 331 332 331 330 329 329 329 329 329 329 329 329 329 329 329 328 328 327 327 325 321
321 320 320 320 320 320 320 321 321 321 321 322 323 324 325 326 326 325 324 323 322 322 322 322 322 323 323 323 324 324 324 324 325 325 326 327 327 328 328 328 328 328 329 329 329 329 330 330 330 330 330 330 330 330 331 331 331 331 330 330 331 330 330 330 330 330 332 332 330 329 329 329 329 329 329 329 328 328 329 328 328 328 327 326 324
320 320 319 318 318 318 318 318 318 319 319 320 321 322 323 324 324 324 322 321 321 321 321 321 321 321 322 322 322 322 322 322 323 323 323 324 325 325 325 325 325 325 326 326 326 326 326 327 327 327 328 328 328 329 330 331 330 330 329 329 329 328 328 328 329 329 330 331 331 330 329 329 329 329 329 329 328 328 329 329 329 328 328 327 327
319 319 318 317 317 317 316 316 315 316 317 318 319 320 321 322 322 321 321 320 320 320 320 320 320 320 320 320 320 320 320 321 321 321 321 321 322 322 322 322 322 322 323 323 323 323 323 323 324 325 326 326 326 326 327 328 328 328 329 329 329 328 328 328 328 329 329 330 330 330 329 329 329 329 329 329 329 329 328 329 329 329 329 328 328
318 318 318 317 316 316 315 314 313 314 315 316 318 319 319 319 318 318 318 318 318 318 319 318 318 318 318 318 318 318 319 319 318 319 319 319 318 319 319 319 320 320 320 320 320 320 320 320 321 322 323 324 324 324 324 325 326 327 329 329 329 328 328 328 328 328 328 328 329 329 329 328 329 329 329 329 329 329 329 328 329 329 329 328 329
Wind_Speed
18 17 16 16 18 18 16 15 13 13 13 12 13 16 19 19 18 19 19 19 19 20 20 20 21 21 21 21 21 20 20 18 17 17 17 16 16 16 16 15 15 15 16 16 16 16 16 17 17 16 17 17 17 18 18 18 17 16 16 15 14 14 15 17 17 16 15 15 16 17 17 16 16 15 15 15 15 16 16 16 15 15 15 14 13
20 18 17 16 18 18 17 15 14 13 13 13 13 16 19 18 17 18 18 17 18 18 18 18 19 20 20 20 20 19 19 17 17 17 17 16 16 16 16 15 15 15 16 16 16 16 16 16 17 17 17 17 17 18 17 17 17 16 16 17 17 16 15 16 16 15 15 14 15 16 16 16 16 16 16 16 16 16 15 15 15 15 15 14 14
20 19 17 16 18 18 17 16 14 13 13 13 13 16 18 18 17 17 17 17 17 18 18 17 17 18 18 18 18 18 17 17 17 17 17 16 16 16 16 15 15 15 16 16 16 16 16 16 17 17 17 17 16 16 16 16 16 17 17 19 19 18 16 16 16 15 15 15 15 15 17 17 16 16 16 15 15 15 15 15 15 15 14 13 14
21 20 18 17 18 19 17 16 14 13 13 13 14 16 17 17 17 17 17 17 17 17 18 17 17 17 17 17 17 17 17 17 17 17 16 16 16 16 16 16 15 15 15 15 16 16 16 16 16 17 16 16 15 15 15 15 15 17 18 19 19 18 16 16 16 16 16 15 14 16 19 18 16 16 15 15 14 15 15 14 14 15 14 13 13
21 20 19 18 18 19 17 16 15 13 13 13 14 15 16 16 17 17 17 17 16 16 17 17 17 17 17 17 17 17 17 16 16 16 16 15 16 16 15 15 15 15 15 15 15 16 16 16 16 16 16 15 15 14 14 13 13 15 16 17 18 17 16 16 16 16 15 15 14 16 18 18 16 16 15 14 14 14 15 14 14 14 14 13 12
21 21 20 19 19 20 18 16 15 13 13 13 13 15 16 16 16 16 16 17 16 16 16 16 17 17 17 17 17 17 16 16 16 16 16 16 15 15 15 15 15 15 15 15 15 15 16 16 15 15 15 15 14 13 13 13 12 12 12 12 15 15 15 14 15 15 15 15 15 16 17 16 15 14 14 14 13 13 13 13 13 13 13 13 12
21 20 19 19 20 19 18 17 15 14 13 13 13 14 15 16 16 16 16 16 16 16 15 16 16 16 16 16 16 16 16 16 16 16 16 15 15 15 15 15 15 15 15 14 14 14 14 15 15 15 15 14 13 13 13 12 11 10 8 7 10 11 12 13 13 15 14 13 14 15 15 15 14 13 13 13 13 13 13 13 12 12 12 12 12
20 20 18 18 19 18 17 17 16 14 13 13 13 14 14 15 16 16 16 16 16 15 15 16 15 16 16 16 16 16 16 16 16 16 15 15 14 14 14 14 13 13 13 13 12 12 13 13 13 14 13 13 13 13 12 11 10 8 6 5 6 6 8 11 12 13 13 12 12 14 14 14 14 13 12 12 12 13 13 12 12 12 12 12 12
20 19 18 19 18 17 17 17 16 15 14 14 13 13 14 15 16 16 16 15 15 15 15 15 15 15 15 15 15 16 16 15 15 14 14 13 13 12 12 12 11 10 10 11 11 11 11 11 11 12 12 11 11 11 11 10 9 6 5 5 6 4 6 9 10 12 12 12 12 13 15 14 15 13 12 12 12 12 13 13 12 12 11 11 11
19 18 18 18 17 16 17 17 16 15 15 14 13 12 13 15 15 15 15 15 15 15 15 15 14 15 14 14 14 15 15 14 14 13 13 12 11 11 10 9 8 7 7 9 11 12 11 9 9 10 9 9 9 9 9 9 7 5 5 7 7 6 6 8 9 10 12 12 11 11 12 11 12 12 11 11 11 11 13 13 12 11 10 10 9
17 18 18 18 16 16 17 16 16 15 14 13 12 12 13 14 15 15 15 15 15 14 14 14 14 14 13 13 14 14 14 13 13 12 11 10 10 9 8 7 7 6 6 8 11 12 11 9 8 8 7 6 7 7 9 8 6 5 6 8 8 8 8 8 9 10 11 10 9 8 9 10 11 11 11 11 11 11 11 12 11 10 9 9 9
17 17 18 17 15 15 16 16 15 14 13 13 11 12 13 14 14 15 15 15 15 14 14 13 13 13 12 12 13 13 12 12 12 11 10 9 9 8 7 7 7 6 7 7 9 10 9 9 8 8 8 7 6 7 9 7 5 4 6 8 9 9 9 8 8 10 10 9 9 10 11 13 12 10 10 10 10 10 9 10 10 9 8 8 8
18 18 18 16 15 15 16 15 14 13 13 13 11 12 13 13 14 14 14 15 15 14 13 13 12 12 11 12 11 11 11 11 11 10 9 8 8 8 7 7 7 7 7 6 6 7 7 8 8 9 9 8 8 9 9 6 4 4 5 7 9 10 8 7 7 8 9 9 10 11 12 12 11 9 9 9 9 9 8 8 8 7 7 7 6
19 19 18 16 15 15 15 15 13 12 12 12 12 12 12 13 14 13 14 15 14 14 13 12 11 10 10 10 10 10 10 10 9 9 9 8 8 7 7 7 7 8 8 7 6 6 6 7 9 11 11 10 10 10 8 6 4 4 5 8 9 9 7 7 7 7 8 9 9 10 11 10 11 10 8 7 7 7 7 7 7 6 5 5 5
21 20 18 16 15 15 14 13 12 11 11 11 12 12 12 14 14 13 13 14 14 13 12 12 10 9 9 9 8 9 8 8 8 8 8 8 7 7 6 6 7 8 9 8 7 6 5 7 10 12 11 11 11 9 7 6 5 4 5 7 8 7 6 6 7 6 6 7 8 8 8 9 10 9 8 7 5 6 5 6 6 5 5 5 5
20 20 18 17 16 14 13 13 12 11 11 11 12 12 13 13 13 12 13 13 13 12 12 11 10 9 8 8 7 7 7 7 7 8 9 9 7 6 6 6 6 8 9 9 8 6 5 7 10 12 11 11 10 8 6 6 5 4 3 5 6 6 6 6 6 5 5 6 6 6 5 7 9 8 8 7 6 5 5 5 5 5 4 4 4
19 19 19 17 16 14 13 13 12 11 11 11 11 12 13 12 12 12 12 13 12 11 11 11 10 9 8 7 6 6 6 6 7 8 9 9 8 7 7 7 7 8 9 9 9 7 6 7 10 11 11 11 9 7 6 5 4 3 3 3 5 6 5 4 5 5 4 4 4 4 5 7 8 8 8 7 6 5 4 4 3 3 3 3 4
18 18 18 16 15 14 13 12 11 11 11 11 11 11 11 11 11 11 11 11 10 10 11 10 9 8 7 6 5 5 5 6 6 6 8 8 7 7 7 8 8 9 9 9 9 7 6 6 9 10 10 9 7 6 5 5 5 3 3 3 4 5 4 4 4 4 4 4 3 4 5 7 8 7 6 6 6 5 4 3 3 3 3 3 4
18 18 17 15 15 13 12 12 12 11 11 12 11 11 10 11 11 10 10 10 9 9 10 9 8 7 6 5 4 4 5 5 5 5 6 7 7 6 6 8 8 9 9 9 10 8 6 6 7 8 9 8 7 6 6 6 6 6 4 3 4 4 4 3 3 3 3 3 3 3 3 6 8 7 6 5 5 5 4 3 3 3 3 3 3
18 17 16 14 14 12 12 11 11 11 11 12 12 10 9 10 10 9 9 8 8 8 8 8 7 6 5 4 4 3 4 3 3 3 4 4 5 5 5 6 7 8 9 9 10 9 6 4 5 7 8 7 6 6 7 7 8 9 6 3 3 4 3 2 2 2 2 2 1 1 2 4 7 8 6 5 5 6 5 4 3 3 3 2 1
16 15 14 13 12 11 10 10 10 10 10 11 11 10 9 8 9 8 7 6 6 7 7 7 6 5 4 3 3 2 2 2 1 2 1 2 4 4 3 4 5 6 7 8 9 9 8 4 3 5 6 6 5 5 6 7 8 9 7 4 2 2 2 1 0 1 1 1 0 1 2 2 5 8 6 5 5 5 5 4 4 3 3 3 1
15 12 12 12 11 11 10 9 10 9 9 9 10 10 9 8 8 8 7 6 6 6 7 6 5 4 3 3 2 2 3 4 5 4 2 2 3 3 2 2 3 4 5 7 7 8 8 6 2 3 5 5 4 4 5 6 8 8 7 4 1 1 3 2 2 1 1 1 1 1 2 2 5 7 6 6 6 5 5 5 4 3 4 4 2
14 12 11 11 11 11 10 9 9 8 9 9 9 10 8 8 8 9 9 8 7 6 7 6 4 4 3 3 3 4 5 6 7 6 5 4 3 2 2 2 3 3 4 5 6 6 7 7 4 2 4 5 4 4 4 5 6 8 7 5 3 1 2 3 4 3 3 2 2 1 2 3 5 7 6 6 6 5 5 5 5 4 5 5 4
14 13 12 12 11 11 10 9 8 8 8 9 10 9 8 8 9 10 9 7 6 6 6 5 4 4 3 3 4 4 4 5 5 5 6 5 4 3 2 3 3 4 4 4 4 5 5 6 5 1 4 5 5 4 3 3 5 7 8 7 5 2 2 4 5 5 4 4 3 2 2 4 5 6 7 7 6 6 5 5 5 5 5 5 5
14 13 13 13 11 10 9 9 8 7 8 9 9 8 8 9 9 8 7 5 5 5 5 4 3 3 2 2 2 3 3 4 4 5 6 6 5 4 4 4 4 5 5 4 4 3 4 4 4 3 2 5 6 5 3 1 2 5 7 7 6 4 3 4 5 6 6 5 4 4 3 4 5 6 7 7 7 6 6 5 5 5 6 6 6
14 14 14 13 11 9 9 8 8 7 7 8 7 7 7 7 8 7 6 4 4 4 3 2 1 1 1 1 1 2 3 4 6 6 6 6 6 6 6 6 5 5 6 6 6 4 2 2 2 2 1 4 7 6 4 3 3 5 7 7 8 7 5 5 6 7 7 7 6 5 4 5 6 6 7 8 8 7 6 5 6 6 7 7 7
13 12 12 11 10 9 8 7 7 6 6 6 6 6 6 6 6 5 5 4 3 2 1 1 1 1 1 2 3 4 5 6 7 7 6 6 6 6 7 7 7 7 6 5 7 7 5 3 2 2 1 2 6 6 5 5 5 6 8 8 8 8 7 6 7 8 9 9 8 7 6 5 6 6 8 9 9 7 7 7 7 7 7 7 7
13 11 11 10 9 8 7 6 6 5 5 5 6 6 5 5 5 4 4 3 2 1 2 3 3 3 3 4 5 6 7 8 8 7 7 6 6 6 6 7 8 8 7 6 6 7 8 6 5 4 3 2 4 6 7 7 7 8 9 9 9 9 9 7 7 8 9 10 10 9 8 6 7 7 8 10 9 8 8 8 8 8 8 8 8
12 11 10 9 8 8 7 5 5 4 3 4 5 5 4 4 4 3 2 1 0 1 2 3 4 4 5 6 7 8 9 8 7 7 7 7 7 7 7 8 8 8 9 8 7 6 7 8 8 7 6 5 5 6 8 8 9 9 10 11 11 11 11 9 8 9 10 12 12 11 9 8 8 8 9 10 10 10 9 9 8 8 9 9 8
10 10 9 8 7 7 6 5 4 3 3 3 4 4 3 3 3 2 1 1 1 2 3 4 5 6 6 7 8 9 9 8 6 7 7 8 8 8 8 9 9 9 9 9 9 8 7 7 8 9 8 7 7 7 8 10 10 11 11 11 12 13 13 12 11 10 11 13 14 13 12 10 10 9 10 11 11 11 11 10 10 10 10 9 10
10 10 8 8 7 7 6 6 4 2 2 3 3 2 1 2 2 1 2 2 3 4 5 6 6 6 7 8 9 9 9 8 7 7 7 7 7 8 9 9 9 9 9 9 9 10 10 9 9 9 9 9 9 10 11 12 12 12 13 13 14 15 16 15 14 13 12 13 16 16 14 13 12 11 12 12 12 13 12 12 11 11 11 10 10
10 9 7 8 7 6 6 5 4 3 1 1 1 0 1 2 2 2 3 4 5 6 7 7 6 7 7 7 7 8 8 8 8 7 6 5 6 7 8 8 9 9 9 9 9 10 11 11 11 11 10 11 11 12 13 14 15 15 16 16 16 17 17 17 17 16 14 13 15 17 16 15 14 14 14 13 13 14 14 13 13 13 12 11 11
10 8 7 7 6 5 5 5 4 3 2 1 1 2 3 3 3 3 4 5 6 7 7 7 7 7 7 6 6 7 8 8 7 6 5 5 6 7 8 8 8 9 8 9 9 8 9 10 11 11 11 11 12 12 13 15 16 17 18 19 19 18 17 17 17 17 16 15 15 18 19 17 16 16 16 16 14 15 16 15 14 14 12 12 13
9 7 6 6 4 3 3 2 2 2 1 1 2 3 3 3 3 3 4 5 6 7 6 5 6 6 6 6 6 7 7 7 6 6 5 6 6 7 7 7 8 8 8 8 8 8 8 8 9 11 11 12 12 12 14 15 16 17 18 19 19 18 17 17 17 17 17 17 16 18 20 19 18 17 17 17 17 17 17 16 15 15 15 14 14
9 7 6 6 4 3 2 1 0 1 1 1 2 2 3 3 3 4 4 5 6 6 5 5 6 6 7 7 7 7 7 6 6 6 5 5 6 6 6 6 7 8 8 9 9 9 9 9 9 10 12 12 13 13 14 15 16 16 17 17 18 17 17 16 16 16 17 18 18 18 20 21 20 18 18 18 19 20 18 17 16 16 16 15 15
10 8 6 5 5 3 3 2 1 1 1 1 2 2 3 3 4 5 5 6 7 7 7 7 8 8 8 9 9 8 7 6 6 6 6 6 7 6 5 5 6 8 8 8 8 9 10 10 9 10 11 12 13 13 13 14 15 16 16 16 17 17 17 16 17 17 16 17 18 19 20 22 21 19 19 19 20 22 20 18 17 17 16 16 17
10 9 6 6 6 4 3 2 1 0 1 2 2 3 4 4 5 6 7 8 9 8 8 8 9 9 9 9 9 8 7 6 6 6 7 7 9 8 8 7 7 8 8 8 9 10 11 11 10 9 10 11 12 13 13 13 14 15 16 16 17 18 18 17 17 17 16 16 18 19 21 23 23 21 21 21 21 23 23 20 18 19 19 18 19
11 10 7 7 7 4 4 3 2 2 2 3 3 4 5 5 6 6 7 8 8 7 8 8 8 7 8 7 5 5 5 5 5 5 6 8 10 11 10 9 7 8 9 10 10 12 12 12 12 11 10 11 12 13 14 15 15 16 16 16 17 18 19 19 18 18 18 18 19 20 21 22 24 24 23 23 23 24 25 23 20 21 22 21 21
12 10 8 7 7 6 6 6 4 4 2 3 4 4 5 5 5 6 6 6 7 7 6 6 6 6 6 5 4 4 4 3 3 4 6 9 11 11 11 10 8 8 10 12 12 13 13 12 12 13 13 13 13 14 15 15 16 16 16 17 17 17 19 19 19 20 20 21 21 21 22 23 24 26 25 24 24 25 26 25 22 23 24 24 23
14 13 10 9 10 10 10 9 7 6 4 3 3 3 4 5 6 7 7 8 9 9 8 7 7 6 6 5 5 5 4 3 2 3 5 8 10 11 11 11 11 10 12 13 12 12 12 12 12 13 13 14 15 16 15 14 15 16 17 18 17 16 17 19 20 21 22 22 23 22 23 24 24 26 27 26 25 25 26 26 25 24 24 25 25
18 16 14 14 14 13 13 13 11 9 7 6 5 5 5 5 5 6 8 9 10 10 11 11 10 9 8 7 7 6 5 3 2 3 4 7 8 10 10 11 11 12 13 12 11 11 11 11 11 11 12 13 15 15 14 13 12 12 14 16 18 18 17 17 19 20 21 23 23 24 24 25 26 26 27 27 26 25 27 28 27 25 25 26 26
20 20 18 17 16 15 15 15 13 11 10 10 9 8 6 6 5 6 8 10 11 11 11 12 11 10 10 9 8 7 6 5 4 3 4 5 7 8 9 9 9 10 11 10 10 10 11 11 10 9 10 11 13 14 13 11 8 8 10 10 13 15 12 12 16 18 20 22 23 25 26 26 27 27 27 28 28 28 29 30 29 26 27 29 28
21 21 20 18 17 17 16 15 15 14 13 12 10 9 8 7 7 7 9 11 12 12 12 12 12 12 12 11 10 9 7 6 5 3 3 4 6 7 8 8 7 7 9 10 10 10 12 13 10 9 10 11 12 13 13 11 10 12 10 6 5 6 6 8 12 15 17 19 23 25 26 27 28 28 28 30 30 30 31 31 31 29 28 30 32
21 21 19 19 17 16 15 15 14 13 13 12 11 9 8 8 9 10 10 11 12 13 13 13 13 13 13 13 12 11 10 8 7 6 5 6 6 7 7 7 8 8 9 10 11 12 12 12 11 10 11 12 13 13 13 12 11 10 7 3 1 2 4 3 6 11 13 16 21 24 26 28 29 30 30 32 33 33 33 33 32 31 29 31 34
21 20 18 18 16 15 13 12 12 11 10 10 10 8 7 8 9 9 9 9 10 10 12 14 13 13 13 13 13 12 10 10 9 9 8 8 8 8 7 8 8 9 10 10 11 12 12 12 12 12 12 12 13 14 14 13 11 11 9 6 3 2 2 3 6 9 9 13 18 20 23 26 28 31 32 34 35 34 34 34 33 32 31 32 35
20 20 18 16 15 14 12 11 11 11 10 10 9 8 7 8 8 8 8 9 10 11 12 13 13 13 13 13 12 11 10 10 10 10 10 10 10 10 9 9 9 9 10 11 11 12 13 13 14 14 13 13 13 13 14 15 15 14 13 11 10 9 8 8 7 5 7 11 15 18 21 23 26 30 31 33 34 35 34 34 34 33 33 33 36
19 20 18 16 15 13 12 12 11 11 11 10 9 8 8 9 10 11 10 10 12 12 12 12 13 12 12 12 12 12 11 11 10 11 10 10 10 11 11 11 10 10 10 11 12 13 13 14 14 14 14 14 14 14 15 16 15 15 16 16 16 17 17 14 8 5 6 9 12 15 19 21 25 28 31 33 33 33 33 34 34 35 35 35 36
18 19 18 16 15 13 13 12 12 12 12 11 10 10 9 8 9 10 11 12 12 12 11 11 11 11 11 12 13 13 13 13 12 11 11 11 11 12 12 13 13 13 12 12 12 12 12 12 13 14 14 14 14 16 17 17 15 16 16 15 14 16 19 19 18 13 7 6 8 11 16 21 24 27 30 32 34 34 33 33 33 35 37 37 38
18 18 17 16 15 15 15 15 15 14 13 12 12 11 10 8 8 8 10 11 11 10 10 10 12 12 13 14 15 15 14 14 14 13 13 13 13 13 14 14 15 15 15 15 14 14 13 13 13 13 14 14 14 15 17 18 18 17 15 16 17 17 18 20 22 21 14 10 8 7 11 16 19 25 29 30 32 34 34 33 32 34 36 36 38
17 16 16 15 16 16 17 18 18 16 14 13 12 11 10 9 9 9 10 10 11 10 10 12 13 14 15 16 17 16 15 14 15 15 14 15 15 15 15 15 16 16 16 17 18 18 18 16 14 14 14 15 15 15 16 18 18 19 20 22 20 17 15 14 16 18 17 13 10 8 11 12 12 18 25 29 31 32 33 34 34 34 35 35 36
16 16 16 15 15 16 17 20 20 18 17 15 14 13 12 12 13 12 13 13 13 13 13 14 15 15 15 16 15 13 13 14 15 16 16 16 16 16 17 16 17 17 17 19 19 20 21 20 18 16 16 16 17 17 17 18 18 19 20 19 18 17 17 16 16 18 14 11 10 8 11 15 15 18 22 27 31 31 32 34 35 36 36 35 35
Wind_Direction
161 159 165 166 157 154 154 150 139 128 118 110 123 128 119 115 115 114 113 114 117 119 121 123 125 124 122 121 119 118 118 116 114 112 109 109 108 107 105 103 103 102 103 101 101 100 99 101 101 100 99 99 98 98 96 93 89 85 85 87 89 91 92 92 94 93 88 88 87 88 93 92 91 91 90 90 90 93 94 93 92 90 85 80 76
160 161 165 164 157 154 155 150 140 131 119 115 125 131 122 116 116 114 113 114 116 117 119 120 122 122 120 120 119 119 118 117 115 113 111 110 109 107 106 104 104 103 104 103 101 100 100 102 102 101 99 99 100 101 97 93 88 84 84 84 87 91 91 91 93 93 91 89 85 89 96 95 94 94 93 93 94 95 92 90 90 88 85 82 79
156 162 164 161 156 154 155 149 141 132 122 119 127 136 125 119 119 116 115 115 117 118 119 120 121 120 120 119 118 118 117 117 115 114 112 110 108 107 105 104 103 103 103 103 102 103 104 104 103 102 102 101 101 102 99 94 89 86 83 79 82 86 88 89 89 93 96 98 94 91 97 100 98 97 97 96 97 99 94 91 90 86 83 82 81
157 160 162 160 156 154 154 149 142 134 127 122 129 139 129 123 123 119 116 114 116 117 119 120 121 120 119 119 117 118 117 117 115 114 112 109 108 107 106 105 104 104 104 105 105 107 107 106 107 108 107 105 103 104 101 97 93 87 82 77 79 84 86 90 90 96 104 107 102 96 101 105 103 99 97 97 99 100 97 93 89 85 84 82 80
156 158 159 159 157 155 154 149 142 136 130 125 131 139 131 126 125 119 117 117 117 116 118 120 120 120 120 119 118 118 117 116 115 113 111 109 108 107 106 105 104 104 104 104 106 110 110 111 112 112 110 107 105 106 105 100 95 90 86 78 80 85 85 91 95 97 102 103 100 99 103 104 101 98 96 95 95 94 93 92 90 88 88 89 85
154 156 159 160 157 154 153 149 143 139 134 128 130 137 132 128 126 121 120 120 120 118 118 120 120 121 121 120 119 119 117 116 114 112 109 107 106 106 106 104 105 104 103 101 105 111 112 112 114 115 112 108 105 106 107 103 95 92 91 76 77 86 83 89 99 100 101 100 99 96 96 95 92 92 95 95 93 92 92 93 94 92 88 86 83
152 155 159 160 153 152 152 147 144 142 137 131 129 135 134 131 128 122 123 122 121 121 120 121 121 122 122 121 120 118 117 115 113 111 107 105 104 104 104 104 105 104 103 101 104 112 115 116 116 118 117 113 110 107 106 103 97 92 91 76 77 86 86 89 101 105 101 101 102 98 99 101 98 94 96 96 94 93 90 87 88 90 86 82 80
152 156 159 157 151 152 150 146 145 143 138 132 130 134 135 131 129 125 123 123 123 122 122 123 123 123 122 121 119 118 117 114 111 109 107 106 106 105 106 106 105 106 109 107 109 117 119 119 118 121 124 121 116 111 107 101 96 92 89 79 82 92 94 93 104 113 106 104 109 107 108 107 103 98 96 97 97 96 91 88 87 85 85 82 81
153 156 158 155 150 152 149 146 145 143 139 133 132 132 134 133 130 128 124 124 124 123 124 125 124 124 123 122 120 120 118 114 111 108 107 107 108 107 108 109 109 113 116 112 115 125 124 118 120 127 129 125 119 112 106 97 91 87 78 68 83 118 125 100 105 123 116 112 116 113 112 108 104 100 97 96 98 98 94 94 92 87 83 79 77
152 155 158 152 149 154 150 147 144 141 139 135 134 132 134 136 132 130 127 126 126 124 126 126 126 126 125 124 122 122 120 116 113 109 108 106 107 105 105 107 109 115 117 116 121 129 131 128 131 134 134 129 122 111 100 93 85 70 61 60 78 126 144 109 105 127 126 124 126 121 119 115 110 104 102 99 98 98 94 93 91 89 91 86 85
149 153 152 148 152 156 149 145 143 141 139 138 135 134 137 136 135 132 130 129 128 127 129 128 128 128 127 127 126 124 121 117 112 107 104 102 102 100 99 98 95 98 105 119 129 134 139 143 147 148 152 146 128 112 100 93 80 60 61 62 77 117 135 113 106 124 135 136 136 130 120 112 109 106 106 104 99 99 96 94 89 85 88 87 88
145 150 147 147 155 154 148 144 141 141 141 140 138 137 137 136 137 135 134 134 133 132 132 131 130 130 129 128 127 122 117 111 103 97 93 92 94 94 95 89 86 85 89 107 129 138 142 145 153 163 170 161 135 116 105 91 73 61 68 76 90 114 124 111 106 123 138 139 133 125 114 107 109 105 103 106 103 101 97 96 93 88 88 88 89
144 147 146 149 154 150 147 144 142 144 144 145 146 142 140 138 136 138 140 140 139 136 135 134 131 130 127 126 125 117 109 101 91 85 80 79 83 87 87 79 81 76 73 90 116 130 135 135 141 154 159 151 132 117 105 88 70 65 81 97 106 116 119 108 106 123 136 136 128 122 115 107 110 110 106 106 105 105 101 102 99 97 104 102 98
145 146 148 151 149 148 150 147 146 149 150 152 153 149 146 141 139 146 146 144 143 140 138 135 132 128 125 125 123 113 103 93 83 75 70 68 71 76 75 69 72 67 62 73 92 107 123 130 133 139 140 135 126 116 104 85 70 65 94 115 119 119 117 106 107 120 134 138 127 120 115 109 115 118 114 106 102 106 106 108 102 100 110 108 101
144 147 150 149 146 151 155 152 156 158 158 157 155 154 149 144 148 151 144 144 145 142 140 136 132 129 127 125 121 113 102 87 73 65 60 59 65 68 63 59 61 60 57 60 70 88 114 130 132 134 133 129 124 116 101 84 73 62 100 127 129 122 112 101 106 117 131 141 133 124 118 115 120 117 113 112 108 107 101 102 100 95 98 100 94
144 148 150 149 150 156 158 160 165 166 164 160 157 156 151 151 155 151 143 146 146 143 140 135 134 134 129 121 117 113 97 75 59 55 51 46 51 58 56 52 53 56 51 48 55 75 108 129 132 133 133 131 126 113 92 80 70 56 87 129 135 125 113 98 99 110 122 136 138 135 124 120 123 120 119 120 115 107 99 101 101 97 87 88 90
146 150 150 150 154 157 160 162 164 165 164 160 159 160 155 155 157 154 151 150 148 145 141 135 133 131 124 116 111 101 81 57 50 49 45 42 42 43 47 47 47 54 49 44 47 65 102 129 134 135 136 135 128 106 83 73 67 53 62 115 139 130 119 100 89 98 108 121 133 128 114 116 123 125 125 125 121 114 108 103 101 107 86 79 95
148 151 150 152 155 159 161 158 162 162 159 157 160 163 158 157 157 157 155 151 148 147 145 140 135 128 118 110 101 87 70 52 51 46 39 40 41 37 39 42 43 49 48 45 46 58 94 129 138 141 142 139 127 101 77 67 66 65 71 106 142 137 122 104 87 90 98 104 114 117 110 117 129 129 130 134 130 124 121 117 110 106 90 89 103
149 152 152 156 158 160 161 158 162 160 157 160 162 163 160 157 156 156 153 147 143 144 149 145 138 128 117 112 104 89 74 62 58 49 39 33 39 43 39 38 40 46 46 44 45 53 84 128 144 148 148 141 127 101 77 65 61 70 87 113 144 153 134 110 91 85 89 95 102 117 125 128 137 141 144 146 137 136 139 139 127 106 101 108 110
151 154 155 159 160 161 163 158 158 157 158 162 161 159 156 154 155 157 152 146 140 142 149 150 143 130 126 122 107 93 76 70 58 57 56 25 34 50 45 39 35 43 48 45 43 47 68 119 148 156 156 147 133 108 83 69 59 61 71 95 142 170 160 131 98 78 74 86 95 133 163 152 150 154 158 156 150 150 146 146 144 128 126 118 99
152 155 158 160 161 164 163 156 156 158 159 159 158 151 145 150 155 156 148 146 145 144 150 154 153 144 140 128 105 90 68 61 42 62 84 19 40 51 40 44 32 35 46 47 44 43 55 84 148 166 165 157 142 115 92 79 67 61 63 69 117 187 197 184 88 49 44 46 354 215 201 182 156 159 162 160 159 159 155 157 157 152 150 144 131
153 155 162 164 165 164 159 157 157 158 158 155 152 144 146 154 152 146 134 125 127 139 151 155 159 155 143 125 101 68 56 54 48 43 42 34 61 60 9 17 20 21 35 43 45 41 48 60 98 188 181 169 157 128 101 83 72 65 65 61 59 210 227 246 285 311 335 349 325 260 226 186 155 164 172 167 167 172 169 162 155 154 163 167 147
158 159 164 169 169 164 157 156 157 157 155 148 143 141 146 150 143 136 127 123 127 139 148 153 157 149 126 99 83 65 61 59 50 38 33 34 52 59 5 355 351 357 14 26 38 38 40 48 63 177 200 186 176 151 116 85 72 62 60 61 51 266 252 270 286 294 304 319 320 286 243 196 171 179 187 181 177 179 177 171 166 165 167 166 152
165 162 163 171 170 164 158 154 156 157 149 142 140 138 137 140 139 136 132 129 134 141 143 144 145 140 123 92 79 63 53 50 40 24 25 28 29 27 1 349 332 329 338 351 14 29 32 35 46 87 199 195 188 178 153 95 69 52 45 48 42 12 272 273 280 285 292 303 311 294 249 210 194 194 194 192 191 191 188 185 182 176 176 171 158
165 161 164 171 171 167 161 154 157 156 147 147 144 136 136 143 145 145 145 129 120 135 138 134 139 149 134 93 77 50 29 22 12 1 6 14 17 13 3 352 331 315 307 310 330 360 18 22 33 52 179 191 189 191 196 173 42 25 21 22 18 5 318 285 282 281 285 292 297 291 259 226 220 209 194 197 204 206 201 191 186 182 183 175 163
163 164 166 171 173 168 161 155 159 158 148 148 144 137 145 157 157 155 158 147 129 138 141 145 155 159 100 49 41 21 8 2 359 359 3 5 3 359 357 356 347 329 306 295 293 299 328 350 10 35 125 188 190 199 227 256 310 339 348 351 351 348 332 304 291 284 280 281 281 280 268 238 235 220 197 206 210 208 209 197 193 191 187 175 165
162 164 162 166 171 165 156 150 151 154 148 147 146 145 150 159 160 164 172 172 169 170 184 231 271 302 320 333 340 346 349 346 347 356 3 7 357 344 343 343 347 347 336 312 291 280 281 290 302 321 351 203 200 208 237 267 291 312 324 330 334 334 329 312 295 287 278 274 270 267 265 242 231 218 203 215 214 206 214 209 205 201 191 179 171
157 155 155 159 164 162 155 147 143 145 149 154 156 152 148 152 159 171 182 186 203 245 276 293 304 312 320 327 333 336 337 335 337 346 352 360 354 338 331 326 328 335 338 337 316 288 278 279 283 282 286 264 232 230 245 266 287 302 312 319 324 326 325 312 295 286 276 267 261 258 258 239 224 217 208 218 215 208 215 215 213 207 196 185 181
152 148 151 157 162 162 157 154 150 142 146 156 157 151 148 154 158 165 173 171 207 317 315 317 315 318 321 320 324 329 333 332 330 334 339 344 343 334 325 315 314 317 320 326 329 315 287 279 279 277 275 269 264 262 261 269 285 298 307 314 320 322 322 314 300 287 275 265 257 252 251 239 226 221 215 219 217 213 214 213 216 213 202 192 189
147 143 149 160 168 167 162 160 158 144 132 141 149 146 140 137 127 123 85 50 28 356 336 327 317 314 318 319 321 323 330 338 335 330 328 329 330 326 319 310 306 305 306 312 315 313 301 286 280 280 278 273 274 280 282 281 286 293 301 309 313 317 318 314 305 293 278 265 256 250 247 239 230 224 221 221 217 217 215 209 213 215 208 197 196
140 137 152 170 173 173 171 165 169 169 133 132 146 145 123 101 90 71 15 358 345 338 334 330 326 320 318 320 321 320 327 339 340 335 326 319 318 314 310 306 303 304 304 305 305 304 301 296 292 292 291 288 288 291 296 295 294 296 300 303 306 309 311 310 305 297 285 269 256 249 245 238 231 226 223 222 215 217 219 211 208 214 213 203 198
141 139 156 175 177 179 177 174 191 207 189 162 152 150 342 352 349 352 343 336 333 330 328 329 333 330 323 319 319 322 324 328 333 334 329 318 313 311 310 309 309 308 305 301 300 299 299 300 303 304 301 298 296 297 299 299 299 300 301 301 303 305 306 306 303 297 290 276 258 248 244 238 231 227 226 226 217 215 219 212 207 213 215 207 204
151 151 155 165 171 178 182 191 211 228 235 237 295 316 317 324 325 339 346 346 345 338 333 330 330 330 329 325 323 326 324 322 323 326 331 326 319 316 313 315 315 311 305 300 297 297 298 300 302 303 302 299 296 297 299 299 299 299 299 299 301 302 302 301 299 295 288 280 265 250 244 239 233 229 227 227 221 217 219 214 207 211 214 209 209
155 156 147 149 159 167 175 185 207 233 252 290 331 328 319 320 334 351 351 351 349 341 337 334 329 332 334 331 326 323 323 324 324 324 325 318 308 305 308 315 316 309 305 307 310 310 304 298 295 293 291 292 292 295 299 300 300 300 299 299 299 299 298 295 292 290 282 277 269 254 244 239 238 233 230 230 226 223 223 218 210 209 213 213 213
149 152 143 143 154 152 149 157 183 274 314 359 350 349 332 333 2 6 359 354 350 346 345 345 341 341 341 338 332 323 324 327 325 320 304 290 287 286 295 307 306 304 307 314 316 313 308 302 298 292 286 285 287 291 296 299 301 301 303 302 301 299 296 292 288 287 281 271 265 257 245 240 239 236 234 234 232 230 225 222 217 209 209 213 215
152 154 153 144 148 150 151 169 187 279 340 46 30 24 5 2 12 9 7 360 354 352 347 347 345 341 337 334 329 325 324 321 317 316 303 292 294 294 298 302 299 303 308 313 310 307 309 307 304 299 294 291 291 293 295 298 300 300 301 302 302 300 295 291 287 286 283 270 262 256 247 241 239 238 240 239 235 234 226 223 222 212 209 214 215
152 151 151 132 129 133 127 128 120 331 2 23 18 26 21 10 10 12 12 5 357 353 349 347 343 336 331 325 323 322 319 313 309 309 301 297 304 313 321 315 305 309 313 315 313 311 310 308 309 306 301 301 301 302 302 303 303 300 298 298 300 299 295 292 288 286 283 272 262 255 249 244 240 239 242 242 239 235 230 227 222 212 213 218 218
152 152 147 127 123 122 102 90 60 23 358 355 8 20 13 8 12 14 9 6 5 1 358 354 349 345 340 337 334 332 326 314 297 288 288 297 305 313 318 314 310 316 317 314 313 311 309 313 318 317 315 312 309 309 309 308 308 305 300 296 296 294 292 291 287 282 278 273 268 261 254 247 243 242 244 243 240 236 232 231 223 212 211 216 222
144 148 144 127 123 114 100 91 68 54 46 33 31 20 11 19 26 24 19 20 29 29 19 15 11 8 10 15 9 354 348 341 321 303 300 304 307 311 313 313 314 317 312 307 308 310 310 316 321 321 319 314 310 310 310 310 312 311 305 301 297 292 289 287 282 276 274 273 272 267 259 251 247 247 246 243 239 236 234 233 227 215 209 210 220
122 129 128 121 113 103 97 92 87 84 83 70 49 25 22 37 39 37 42 45 49 52 49 45 37 32 38 38 24 10 8 12 4 335 312 310 314 317 314 311 309 303 298 297 301 305 305 308 311 313 312 308 307 308 309 311 310 307 304 305 305 300 292 285 278 273 271 270 268 265 259 254 252 249 246 242 237 236 236 235 232 222 213 210 217
110 115 113 108 104 100 94 90 91 91 86 82 75 60 38 32 35 38 52 59 59 60 58 57 55 55 58 52 43 37 36 38 19 336 318 314 315 313 309 305 302 298 299 300 301 303 302 303 304 304 305 303 304 307 311 308 301 299 303 305 306 305 299 285 276 273 271 268 265 261 257 254 252 250 246 240 235 235 235 234 232 227 220 217 218
99 106 104 101 101 97 93 88 88 87 82 82 77 66 52 44 55 69 77 76 69 64 61 60 60 62 61 57 54 51 48 45 31 358 327 317 314 316 318 315 308 307 313 314 312 311 313 315 310 303 302 302 302 305 310 307 293 293 302 305 307 308 300 282 273 273 271 268 263 258 256 254 253 251 246 240 233 232 233 231 230 227 224 223 222
95 99 100 98 96 91 88 85 82 80 78 78 74 69 65 63 79 98 95 86 79 75 75 73 70 68 66 63 59 56 53 48 40 25 360 346 342 341 338 333 332 334 331 328 329 330 331 329 322 314 311 310 307 305 309 309 296 292 294 289 302 312 299 278 268 268 270 268 262 257 255 255 254 252 247 242 236 234 234 232 228 225 225 226 225
95 96 97 94 90 85 81 77 72 69 66 68 72 78 86 94 103 107 100 90 87 86 84 81 76 73 71 69 65 61 58 53 47 37 22 13 7 1 359 356 1 1 346 338 339 341 340 336 332 330 324 313 306 305 309 306 292 290 292 264 250 288 283 287 281 279 277 267 259 256 255 255 254 251 246 244 243 241 238 235 230 225 224 226 227
93 93 93 90 87 82 75 69 64 59 58 59 65 70 80 95 107 110 102 92 85 79 75 73 71 70 69 67 65 62 59 55 48 40 33 26 21 17 18 18 18 9 353 344 346 350 350 347 343 336 326 312 303 300 301 301 296 293 290 282 289 281 272 329 318 298 283 263 257 256 255 256 255 251 247 246 247 245 241 237 233 228 226 226 227
89 91 91 88 85 81 73 69 63 57 54 50 50 49 55 68 77 86 88 84 75 65 62 65 65 65 63 62 60 56 53 50 43 39 34 30 27 23 23 25 23 15 5 359 357 355 352 350 347 335 326 320 310 297 292 300 303 298 290 283 279 275 283 308 314 303 289 272 262 256 254 255 256 252 248 247 246 244 241 237 234 231 229 228 227
89 90 87 82 80 77 71 66 61 57 52 45 38 35 43 56 66 73 79 84 83 73 65 62 61 57 54 51 46 42 38 35 33 30 26 23 20 18 16 17 17 15 11 7 2 357 350 348 346 340 333 329 318 298 289 299 303 295 290 281 273 272 275 278 273 280 299 282 264 258 258 258 254 250 247 247 246 243 240 237 234 232 231 229 227
95 91 86 83 80 76 72 66 62 60 56 51 45 40 41 48 61 71 73 74 75 72 63 53 48 40 35 31 26 25 25 23 23 21 20 16 12 10 7 5 7 7 4 0 356 352 347 342 341 339 334 329 323 307 296 296 289 280 283 282 278 281 280 274 268 271 282 287 275 266 266 264 255 251 248 246 246 245 242 239 234 232 231 229 227
96 90 88 87 84 79 75 69 62 58 53 51 49 48 48 46 47 57 60 60 57 56 50 39 34 25 18 14 8 6 8 10 12 13 14 13 12 12 7 4 5 2 358 354 349 346 343 339 333 329 325 319 316 312 305 300 291 283 288 289 282 279 279 277 272 267 261 268 279 270 266 263 252 251 251 248 247 246 244 241 236 232 231 230 228
97 95 93 89 85 79 72 65 59 56 52 48 47 49 50 48 48 50 50 47 41 36 29 23 20 14 9 6 360 356 357 2 6 8 11 14 15 14 10 8 6 1 357 353 350 347 346 342 335 326 322 317 311 309 306 304 300 293 290 283 271 266 271 275 272 265 257 255 260 263 264 258 250 252 251 248 248 246 243 243 239 235 233 232 230
100 98 94 86 80 74 69 65 59 56 54 52 51 53 53 53 53 52 48 43 38 31 24 20 17 14 14 12 8 7 11 17 15 11 13 17 18 15 12 9 5 3 0 359 357 354 351 347 342 333 326 323 321 318 313 310 307 301 295 288 282 286 288 285 280 275 271 267 268 271 264 257 252 254 253 251 251 246 241 241 240 236 234 233 231